Wind_Speed
13 14 13 14 14 13 16 15 16 17 16 16 15 13 11 11 12 11 11 10 8 8 9 8 9 12 14 16 16 16 17 16 15 16 15 15 13 13 11 8 13 14 16
14 14 15 14 14 13 14 18 17 18 17 18 17 16 15 14 14 13 13 12 11 11 12 12 14 15 16 18 18 19 19 18 18 19 19 18 15 15 12 9 10 12 14
15 14 14 15 14 15 16 17 19 20 19 19 19 19 19 18 17 16 16 15 14 15 14 16 16 18 19 20 21 19 19 19 21 21 21 20 19 16 15 15 14 14 13
17 17 17 16 15 16 16 17 20 21 21 20 18 19 20 19 19 19 18 18 17 16 18 18 19 20 21 21 21 21 20 22 22 20 18 19 18 16 17 16 16 15 14
18 21 22 20 19 18 17 18 18 20 22 22 20 20 21 21 21 21 21 22 21 19 20 20 20 22 22 22 21 20 21 23 21 21 20 18 17 16 17 17 16 15 14
13 20 22 22 22 22 21 19 19 21 22 24 22 23 21 19 20 24 25 24 22 21 21 23 22 21 23 23 22 21 24 23 23 22 18 14 15 16 16 15 15 15 16
15 19 20 24 22 24 24 25 23 22 23 22 23 24 24 23 23 22 24 24 23 23 22 22 21 23 23 21 22 24 24 23 17 13 13 16 17 17 16 14 15 16 16
11 17 18 15 20 25 27 27 27 27 27 24 23 25 24 22 22 22 19 20 21 22 22 23 23 21 23 22 21 25 24 18 18 17 17 17 19 19 21 18 19 19 16
11 14 17 18 20 19 23 20 33 32 29 27 28 26 24 23 24 23 22 22 24 25 27 25 23 23 26 24 25 25 24 19 17 19 19 20 19 20 20 18 19 19 19
11 13 16 19 18 19 16 24 15 28 31 30 28 27 26 24 23 23 23 25 27 27 23 24 24 25 24 24 28 27 20 21 20 21 21 20 20 21 20 20 21 21 21
13 13 15 17 18 17 17 10 14 22 33 33 32 29 28 27 26 27 27 25 24 25 26 26 29 26 26 25 27 30 24 20 23 21 21 21 21 21 22 22 21 19 18
10 7 10 11 15 16 13 12 12 15 32 33 34 32 31 30 29 28 27 30 29 27 27 28 30 28 27 26 26 22 29 31 25 24 23 22 22 21 22 21 21 21 21
10 7 7 10 9 10 11 14 13 18 22 27 29 30 26 27 30 31 29 31 28 27 26 25 23 24 25 26 24 20 20 20 18 20 22 22 21 21 20 21 22 24 20
8 8 7 8 8 9 10 12 17 17 17 21 24 28 32 34 29 28 32 26 26 24 23 32 26 23 21 22 22 20 21 19 20 23 22 21 19 19 19 21 20 18 18
7 6 6 7 8 10 13 14 13 13 14 16 22 25 26 26 28 25 27 32 31 26 24 25 28 28 27 25 24 22 20 19 20 19 21 24 21 20 20 19 19 20 19
6 6 7 8 8 7 8 9 10 14 16 16 17 18 22 24 24 26 31 26 26 31 30 29 35 34 24 26 25 22 20 20 21 21 20 20 21 20 21 21 20 21 20
8 7 6 7 6 7 8 9 10 10 13 15 17 17 18 18 21 25 25 25 26 28 27 29 26 28 29 27 26 24 24 23 24 23 21 20 20 18 18 19 20 20 19
10 10 11 11 11 10 11 10 11 13 13 14 14 17 19 20 21 20 20 25 22 21 25 27 31 31 22 24 18 22 29 29 29 28 23 20 21 19 17 18 20 21 21
13 15 13 13 16 17 17 16 15 15 16 17 17 16 16 19 19 20 20 19 25 27 28 26 21 20 24 20 17 21 29 28 30 30 22 19 23 20 21 20 22 23 23
19 18 19 18 18 18 18 20 22 20 20 20 21 20 16 16 18 20 22 23 23 22 25 29 27 25 24 23 25 25 32 29 28 36 31 24 20 23 22 22 23 22 23
24 22 24 25 24 25 26 22 21 22 22 20 19 21 21 19 18 20 20 22 24 25 26 26 25 23 22 23 26 28 31 33 26 32 20 18 21 19 20 20 21 20 21
25 23 24 30 27 30 28 25 24 24 24 24 22 20 21 22 21 22 22 22 24 24 26 27 28 25 24 24 25 19 17 12 22 18 25 22 24 24 26 25 26 25 26
23 22 25 20 29 34 34 19 21 29 28 27 24 25 19 21 23 23 24 23 22 22 23 26 28 28 26 23 21 19 11 16 22 26 24 28 29 31 28 28 31 32 32
26 26 27 29 31 27 24 24 25 31 32 28 26 26 24 21 22 24 25 22 20 22 24 25 26 28 28 25 22 20 18 19 23 25 29 33 35 35 33 35 35 34 34
31 32 29 30 28 28 25 29 36 36 37 30 26 24 25 26 25 22 24 22 24 25 24 24 24 24 27 28 25 22 22 23 24 27 28 32 34 36 35 36 35 36 35
32 32 30 29 31 27 31 23 36 43 36 30 26 22 22 22 27 26 22 22 24 23 23 22 22 21 21 25 25 24 24 24 25 26 28 29 32 32 32 34 36 36 36
Wind_Direction
204 203 203 210 213 219 213 213 212 214 212 211 214 219 222 217 218 225 226 223 227 240 256 272 282 290 298 304 305 309 308 308 308 307 310 306 305 313 318 282 277 284 290
215 210 210 212 217 216 220 222 219 219 217 219 223 224 224 226 229 230 235 237 243 252 265 273 282 289 293 296 301 305 304 300 302 299 298 300 302 305 304 292 291 297 290
232 225 221 220 223 220 222 223 226 230 222 222 225 230 232 232 235 238 245 247 249 257 265 276 280 283 290 293 298 302 303 302 295 303 284 290 294 291 288 289 291 289 297
234 235 232 230 229 230 229 241 233 230 236 231 228 234 240 244 245 247 252 258 258 262 270 273 278 284 289 291 293 292 297 297 298 305 300 285 286 286 281 279 285 291 288
251 244 233 234 235 234 237 235 233 234 233 238 238 238 243 244 250 252 254 257 261 263 266 271 274 284 287 289 289 288 287 292 296 297 293 278 269 277 284 272 281 283 282
243 252 244 231 238 238 237 241 240 238 240 238 243 247 246 249 253 254 251 252 259 267 272 277 278 282 284 285 286 290 291 293 280 285 283 278 275 273 284 279 281 282 283
250 252 255 236 231 236 239 240 243 244 243 241 244 250 251 252 255 258 255 255 260 265 267 272 280 281 285 288 290 290 296 287 275 281 276 279 278 280 281 279 282 277 276
258 245 252 253 230 238 237 242 243 244 244 244 241 244 248 252 258 258 257 260 264 266 267 275 276 279 285 285 288 285 298 287 262 273 277 275 273 277 283 274 277 280 281
267 247 241 241 244 254 251 247 232 238 239 240 242 241 244 247 253 259 263 263 263 265 268 273 272 279 279 277 278 288 280 267 267 273 271 272 274 279 279 276 275 278 275
281 256 245 239 237 244 254 258 275 245 236 240 235 238 240 247 251 256 264 266 265 265 270 272 274 275 276 280 286 285 278 268 264 274 275 275 273 274 273 279 280 278 276
309 267 243 248 235 233 247 264 270 246 241 236 232 240 242 247 254 258 261 268 269 268 276 278 276 270 269 285 296 278 264 281 266 270 273 274 271 271 270 272 274 272 268
336 298 255 243 242 247 246 242 280 237 235 235 239 244 248 250 252 258 258 263 263 267 271 279 275 268 268 278 295 291 265 276 270 272 268 271 270 269 269 265 268 267 264
331 324 324 247 224 261 245 243 235 237 239 238 240 241 248 250 254 255 262 261 262 267 265 268 269 268 279 276 281 283 277 271 271 268 271 269 272 269 260 256 262 264 262
341 322 309 301 286 276 271 255 249 251 235 239 238 243 239 248 251 255 257 261 261 266 262 273 259 265 268 270 271 271 272 273 271 269 265 267 265 262 260 260 261 257 264
344 349 331 309 295 287 277 275 261 246 270 261 257 254 250 250 241 250 250 253 258 266 263 267 257 268 269 270 268 271 269 274 272 264 270 273 267 265 263 257 251 256 260
338 338 334 335 333 327 305 292 280 269 262 263 263 264 257 248 251 235 251 252 258 254 252 267 270 257 260 266 269 268 268 269 266 267 271 272 270 269 264 257 255 255 254
286 293 297 302 315 320 311 306 302 293 286 282 276 269 261 256 249 248 250 239 243 251 256 260 267 258 262 266 265 263 264 268 262 260 265 266 268 265 260 252 250 249 252
278 279 281 290 303 296 291 289 293 292 292 287 281 279 275 265 264 263 263 246 248 250 245 261 264 261 268 269 256 270 271 260 259 247 256 256 263 258 253 250 254 255 260
278 280 283 291 295 301 302 301 300 300 290 285 281 278 279 279 269 263 261 256 250 253 256 262 264 265 269 257 257 255 260 268 268 257 241 246 248 249 252 251 254 258 262
286 297 301 305 304 299 299 304 302 302 303 297 288 283 281 277 278 268 262 259 257 259 262 266 266 262 262 263 256 250 265 259 254 263 234 239 241 254 250 252 257 262 263
283 291 295 301 304 304 302 293 292 294 289 291 293 282 278 276 274 274 279 272 264 260 257 256 257 257 260 262 259 259 248 246 268 257 215 233 246 248 255 259 259 262 266
290 280 308 282 286 290 287 288 293 289 290 285 283 283 283 279 277 277 276 274 257 258 258 258 257 251 252 258 265 276 260 264 268 246 229 230 240 250 255 258 265 267 268
300 301 305 298 300 291 269 264 297 295 286 280 281 281 283 287 277 275 271 273 271 268 265 261 260 260 258 261 263 268 262 249 265 259 223 239 241 251 263 264 266 268 268
300 305 302 301 296 291 265 245 282 285 279 276 276 278 280 283 287 276 268 268 270 270 269 269 269 268 263 257 250 248 246 247 253 256 241 240 243 254 269 271 271 271 272
301 301 296 295 292 291 280 258 268 272 264 267 273 276 277 279 283 287 276 263 265 267 267 261 260 266 263 255 256 253 251 251 253 254 257 261 267 267 270 273 273 272 271
299 296 297 293 292 283 278 278 273 255 250 258 265 263 269 271 275 277 280 275 261 263 270 267 262 263 269 258 257 260 262 262 261 261 262 265 268 272 274 275 275 275 276
Height
5879 5880 5882 5884 5887 5889 5892 5894 5896 5898 5900 5902 5904 5906 5908 5910 5912 5913 5914 5915 5916 5918 5918 5919 5919 5919 5919 5918 5917 5916 5916 5915 5914 5914 5914 5913 5912 5911 5911 5910 5911 5911 5911
5878 5879 5881 5882 5884 5886 5889 5892 5893 5895 5898 5900 5902 5904 5906 5908 5910 5911 5912 5914 5915 5916 5917 5917 5917 5916 5916 5915 5914 5913 5913 5912 5912 5911 5911 5910 5910 5909 5909 5908 5908 5907 5907
5877 5878 5879 5880 5881 5883 5886 5888 5890 5892 5894 5897 5900 5902 5904 5905 5907 5908 5909 5911 5912 5913 5913 5914 5914 5913 5913 5912 5911 5910 5909 5909 5908 5907 5908 5907 5906 5906 5906 5906 5905 5905 5904
5873 5875 5876 5877 5879 5881 5883 5885 5887 5889 5892 5894 5897 5899 5901 5902 5904 5905 5906 5907 5908 5909 5910 5910 5911 5910 5910 5909 5907 5906 5905 5904 5903 5903 5903 5903 5903 5903 5902 5902 5902 5902 5902
5869 5870 5871 5873 5876 5877 5880 5881 5883 5885 5887 5890 5893 5895 5897 5899 5901 5902 5903 5903 5904 5906 5906 5906 5907 5906 5905 5905 5904 5903 5902 5901 5900 5900 5899 5898 5899 5899 5899 5899 5899 5898 5898
5866 5866 5867 5869 5871 5873 5875 5878 5879 5881 5884 5886 5888 5891 5893 5895 5897 5898 5899 5899 5900 5901 5901 5901 5901 5901 5901 5901 5899 5898 5897 5896 5896 5896 5895 5895 5895 5895 5895 5895 5895 5895 5896
5860 5861 5862 5864 5866 5868 5870 5872 5875 5877 5880 5881 5883 5885 5887 5890 5892 5893 5894 5895 5895 5896 5896 5896 5897 5896 5896 5895 5895 5894 5892 5892 5892 5892 5891 5891 5892 5892 5891 5890 5891 5891 5891
5857 5857 5857 5858 5860 5862 5864 5866 5869 5872 5875 5877 5878 5880 5882 5885 5886 5888 5890 5891 5892 5892 5891 5892 5892 5892 5892 5891 5890 5889 5888 5887 5888 5888 5889 5889 5888 5888 5888 5887 5887 5886 5886
5852 5852 5853 5854 5854 5855 5855 5854 5858 5864 5868 5871 5873 5875 5877 5879 5880 5883 5885 5887 5888 5888 5888 5888 5887 5888 5886 5886 5886 5885 5883 5884 5884 5884 5884 5884 5883 5884 5883 5883 5883 5882 5882
5849 5847 5848 5849 5850 5851 5851 5853 5854 5855 5860 5863 5866 5869 5871 5874 5876 5878 5879 5881 5882 5882 5882 5883 5883 5882 5881 5880 5880 5880 5880 5880 5880 5879 5879 5879 5878 5878 5878 5879 5880 5879 5878
5846 5845 5845 5846 5846 5847 5847 5847 5849 5850 5853 5856 5859 5861 5864 5867 5869 5872 5873 5874 5875 5876 5877 5877 5877 5876 5876 5876 5874 5873 5875 5875 5875 5874 5874 5873 5873 5873 5873 5874 5875 5875 5874
5845 5843 5842 5843 5844 5844 5844 5843 5844 5845 5847 5849 5852 5855 5858 5860 5861 5863 5866 5867 5868 5870 5870 5871 5871 5870 5870 5870 5869 5868 5869 5869 5869 5869 5869 5869 5868 5868 5868 5869 5870 5870 5870
5845 5843 5841 5840 5841 5842 5841 5841 5840 5839 5841 5844 5845 5848 5851 5853 5855 5857 5859 5860 5862 5863 5864 5865 5864 5865 5865 5864 5864 5863 5863 5863 5863 5864 5864 5864 5864 5864 5864 5864 5865 5866 5865
5844 5843 5842 5841 5841 5840 5841 5840 5839 5837 5836 5838 5840 5842 5843 5845 5848 5849 5852 5854 5852 5857 5856 5858 5858 5858 5859 5859 5859 5859 5858 5858 5858 5859 5859 5860 5860 5859 5859 5859 5860 5860 5860
5842 5840 5839 5838 5839 5839 5840 5840 5839 5836 5837 5838 5838 5838 5838 5839 5841 5843 5845 5847 5848 5851 5844 5850 5851 5852 5852 5853 5853 5853 5853 5852 5853 5853 5854 5854 5854 5854 5854 5854 5855 5855 5856
5841 5840 5839 5838 5837 5836 5836 5837 5837 5838 5838 5836 5835 5834 5834 5835 5836 5837 5838 5840 5840 5842 5843 5843 5843 5844 5845 5846 5846 5846 5847 5847 5848 5848 5848 5849 5849 5849 5849 5850 5851 5852 5852
5836 5836 5835 5834 5833 5833 5834 5834 5834 5833 5833 5833 5833 5831 5831 5830 5829 5830 5830 5832 5831 5833 5833 5835 5835 5836 5838 5839 5839 5840 5841 5842 5842 5843 5843 5844 5845 5845 5845 5846 5847 5847 5848
5833 5833 5832 5831 5830 5829 5829 5828 5827 5827 5827 5827 5827 5827 5828 5827 5826 5825 5825 5825 5825 5825 5827 5828 5828 5829 5829 5830 5832 5833 5834 5835 5835 5836 5838 5839 5840 5841 5842 5843 5845 5844 5845
5829 5829 5828 5827 5828 5828 5827 5826 5825 5824 5823 5822 5823 5822 5822 5822 5821 5821 5821 5822 5822 5821 5821 5821 5821 5822 5823 5825 5826 5826 5827 5826 5828 5829 5832 5833 5835 5836 5838 5839 5840 5840 5840
5828 5829 5829 5827 5826 5824 5823 5824 5823 5823 5821 5821 5820 5818 5816 5816 5816 5815 5815 5816 5816 5816 5817 5817 5818 5818 5818 5818 5819 5820 5818 5816 5819 5822 5823 5827 5829 5831 5833 5833 5835 5834 5834
5825 5826 5827 5826 5825 5823 5822 5820 5818 5818 5815 5815 5815 5814 5814 5811 5810 5811 5810 5810 5810 5811 5810 5810 5811 5812 5812 5812 5812 5812 5810 5811 5812 5812 5817 5822 5825 5824 5827 5828 5828 5828 5828
5822 5822 5820 5817 5818 5815 5814 5814 5815 5813 5812 5810 5809 5807 5808 5808 5805 5804 5805 5803 5802 5803 5804 5804 5805 5805 5805 5805 5805 5805 5807 5807 5809 5809 5813 5817 5818 5819 5820 5821 5822 5821 5821
5812 5812 5809 5810 5808 5804 5800 5803 5804 5805 5805 5804 5804 5802 5800 5801 5800 5798 5798 5799 5798 5798 5797 5798 5799 5800 5800 5800 5799 5799 5800 5802 5803 5804 5807 5809 5810 5811 5812 5813 5813 5812 5812
5803 5803 5799 5796 5797 5792 5789 5791 5793 5794 5796 5796 5796 5797 5795 5793 5794 5792 5791 5793 5793 5793 5793 5792 5793 5794 5793 5794 5794 5794 5795 5796 5798 5799 5801 5802 5803 5804 5804 5804 5804 5803 5803
5792 5793 5791 5788 5785 5785 5783 5784 5784 5783 5785 5787 5788 5788 5788 5788 5787 5786 5786 5785 5786 5787 5787 5785 5784 5785 5785 5786 5787 5790 5790 5791 5792 5793 5795 5796 5796 5796 5795 5795 5794 5793 5793
5783 5782 5780 5779 5777 5777 5777 5775 5773 5771 5777 5778 5779 5779 5780 5780 5780 5778 5778 5777 5777 5778 5779 5779 5779 5778 5779 5780 5781 5783 5784 5785 5786 5786 5787 5789 5787 5788 5788 5786 5786 5786 5785